Regional Weather Roundup
Issued by NWS

Home | Current Version | Previous Version | Graphics & Text | Print | Product List | Glossary On
Versions: 1 2 3 4 5 6 7 8 9 10 11 12 13 14 15 16 17 18 19 20 21 22 23 24 25 26 27 28 29 30 31 32 33 34 35 36 37 38 39 40 41 42 43 44 45 46 47 48 49 50
000
ASUS43 KLSX 230007
RWRMO

WEATHER SUMMARY FOR MISSOURI
NATIONAL WEATHER SERVICE SPRINGFIELD MO
700 PM CDT WED MAR 22 2017

NOTE: "FAIR" INDICATES FEW OR NO CLOUDS BELOW 12,000 FEET WITH NO
       SIGNIFICANT WEATHER AND/OR OBSTRUCTIONS TO VISIBILITY.
       CURRENT SKY AND/OR WEATHER CONDITIONS ARE NOT AVAILABLE FOR
       CHILLICOTHE AND FARMINGTON.

MOZ001>031-035>038-043-044-053-054-230100-
...NORTHERN AND WESTERN MISSOURI...

CITY           SKY/WX    TMP DP  RH WIND       PRES   REMARKS
KANSAS CTY INT CLOUDY    53  25  33 E20G26    30.22F
6HR MIN TEMP:  52; 6HR MAX TEMP:  56;

KANSAS C DTWN  CLOUDY    55  25  31 E16G22    30.21S
6HR MIN TEMP:  54; 6HR MAX TEMP:  58;

LEE`S SUMMIT   CLOUDY    53  26  35 E14       30.22F
6HR MIN TEMP:  52; 6HR MAX TEMP:  57;

ST JOSEPH      MOCLDY    53  26  35 E12G20    30.23S
6HR MIN TEMP:  52; 6HR MAX TEMP:  58;

CHILLICOTHE      N/A     48  24  39 E9G21     30.30F
6HR MIN TEMP:  45; 6HR MAX TEMP:  51;

KIRKSVILLE     CLOUDY    45  16  31 E14       30.33F
6HR MIN TEMP:  42; 6HR MAX TEMP:  47;


$$
MOZ066>068-077>081-088>096-101>105-230100-
...SOUTHWEST MISSOURI...

CITY           SKY/WX    TMP DP  RH WIND       PRES   REMARKS
SPRINGFIELD    CLOUDY    57  32  38 SE15      30.20S
6HR MIN TEMP:  57; 6HR MAX TEMP:  61;

JOPLIN         CLOUDY    56  36  47 SE13G21   30.18S
6HR MIN TEMP:  53; 6HR MAX TEMP:  57;

BRANSON        CLOUDY    54  34  47 SE9       30.23S

$$
MOZ032>034-039>042-045>050-055>058-069>072-230100-
...CENTRAL MISSOURI...

CITY           SKY/WX    TMP DP  RH WIND       PRES   REMARKS
COLUMBIA       CLEAR     50  21  32 E14       30.30R
6HR MIN TEMP:  49; 6HR MAX TEMP:  55;

JEFFERSON CITY PTCLDY    53  23  31 E10       30.31R
6HR MIN TEMP:  49; 6HR MAX TEMP:  56;

ROLLA          CLEAR     50  24  36 E12       30.28R
6HR MIN TEMP:  49; 6HR MAX TEMP:  54;

SEDALIA        PTCLDY    53  25  33 E12       30.28S
6HR MIN TEMP:  50; 6HR MAX TEMP:  56;

WHITEMAN AFB   MOCLDY    53  25  33 E12G20    30.24S
WARRENSBURG    CLOUDY    52  27  37 E12       30.25S
OSAGE BEACH    MOCLDY   N/A N/A N/A E13       30.27R

$$
MOZ051-052-059>065-230100-
...EAST CENTRAL MISSOURI...

CITY           SKY/WX    TMP DP  RH WIND       PRES   REMARKS
ST LOUIS INTL  PTCLDY    49  16  26 E12       30.37S
6HR MIN TEMP:  47; 6HR MAX TEMP:  52;

SPIRIT OF STL  CLEAR     47  18  31 E10       30.35F
6HR MIN TEMP:  47; 6HR MAX TEMP:  53;

ST CHARLES     CLEAR     48  13  24 E9        30.37S
6HR MIN TEMP:  46; 6HR MAX TEMP:  52;


$$
MOZ072>076-082>087-097>100-106>115-230100-
...SOUTH CENTRAL AND SOUTHEAST MISSOURI...

CITY           SKY/WX    TMP DP  RH WIND       PRES   REMARKS
CAPE GIRARDEAU CLEAR     51  24  34 NE12      30.34S
6HR MIN TEMP:  51; 6HR MAX TEMP:  56;

FARMINGTON     CLEAR     48  25  40 E7        30.33F
6HR MIN TEMP:  48; 6HR MAX TEMP:  53;

POPLAR BLUFF   CLEAR     53  30  41 NE9       30.31F
6HR MIN TEMP:  52; 6HR MAX TEMP:  57;

WEST PLAINS    CLOUDY    57  28  33 E9        30.26S
6HR MIN TEMP:  55; 6HR MAX TEMP:  61;


$$



USA.gov is the U.S. government's official web portal to all federal, state and local government web resources and services.